Regional Weather Roundup
Issued by NWS Albany, NY

Home | Current Version | Previous Version | Text Only | Print | Product List | Glossary On
Versions: 1 2 3 4 5 6 7 8 9 10 11 12 13 14 15 16 17 18 19 20 21 22 23 24 25 26 27 28 29 30 31 32 33 34 35 36 37 38 39 40 41 42 43 44 45 46 47 48 49 50
998
ASUS41 KALY 200010
RWRALY

NEW YORK STATE HOURLY WEATHER ROUNDUP
NATIONAL WEATHER SERVICE ALBANY NY
700 PM EST MON FEB 19 2018

NOTE: "FAIR" INDICATES FEW OR NO CLOUDS BELOW 12,000 FEET WITH NO
SIGNIFICANT WEATHER AND/OR NO OBSTRUCTIONS TO VISIBILITY.

NYZ032-033-038>043-046>054-057>066-NYZ062>081-082-084-200100-
EAST


CITY           SKY/WX    TMP DP  RH WIND       PRES   REMARKS
ALBANY         LGT RAIN  40  36  86 S17G26    30.27R WCI  31
GLENS FALLS    CLOUDY    36  36 100 S5        30.26R FOG     WCI  32
POUGHKEEPSIE   CLOUDY    39  38  96 CALM      30.32F FOG
NEWBURGH       CLOUDY    39  39 100 W6        30.33S FOG     WCI  35
MONTGOMERY     LGT RAIN  37  36  96 CALM      30.31S VSB 1/2
WHITE PLAINS   CLOUDY    43  42  97 S3        30.33F
ISLIP          CLOUDY    46  45  96 S12       30.36F
NEW YORK CITY  CLOUDY    48  44  86 S6        30.34F
CENTRAL PARK   CLOUDY    48  46  93 CALM      30.36F
$$

NYZ005>009-017-018-044>046-055-056-200100-
CENTRAL


CITY           SKY/WX    TMP DP  RH WIND       PRES   REMARKS
FULTON         LGT RAIN  39  38  96 SE6       30.12F FOG     WCI  35
SYRACUSE       RAIN      39  39 100 E9        30.14F FOG     WCI  33
ROME           RAIN      39  38  96 E9        30.22R FOG     WCI  33
ELMIRA         CLOUDY    40  40 100 CALM      30.19R FOG
BINGHAMTON     LGT RAIN  38  37  97 S7        30.21R FOG     WCI  33
MONTICELLO     RAIN      35  34  96 E3        30.31R FOG
$$

NYZ026>034-041>043-087-200100-
NORTH


CITY           SKY/WX    TMP DP  RH WIND       PRES   REMARKS
WATERTOWN      CLOUDY    43  40  89 S9G23     30.10R
FORT DRUM      NOT AVBL
OGDENSBURG     CLOUDY    40  37  87 S3        30.11R
MASSENA        CLOUDY    36  36 100 NE5       30.13S WCI  32
SARANAC LAKE   CLOUDY    37  35  92 SW8       30.11R WCI  31
PLATTSBURGH    CLOUDY    40  31  70 S13       30.16S WCI  32
$$

NYZ001>004-010>016-019>021-085-200100-
WEST


CITY           SKY/WX    TMP DP  RH WIND       PRES   REMARKS
NIAGARA FALLS  LGT RAIN  52  48  86 SW13      30.00F
BUFFALO        LGT RAIN  55  52  89 SW18G25   30.01F
DUNKIRK        LGT RAIN  54  52  93 S15       30.04R
JAMESTOWN      LGT RAIN N/A N/A N/A MISG        N/A
WELLSVILLE     RAIN      47  46  97 S10       30.14S FOG
ROCHESTER      LGT RAIN  49  47  93 S10       30.05F
PENN YAN       LGT RAIN  43  38  82 SW15      30.12R
$$

             KEY
       WCI = WIND CHILL INDEX
       VSB = VISIBILITY
       HX  = HEAT INDEX
$$




USA.gov is the U.S. government's official web portal to all federal, state and local government web resources and services.